TVP7111 HEGN-EPKT

Flight info

Callsign TVP7111
Flight time 4h 22m
Altitude 34000
Route SOLOX1B SOLOX V603 GIDID DCT KAPIT L677 CVO L617 NOZ L551 ANTAR UN133 ATFIR N133 LOMOS DCT PADGU DCT GESBA DCT ARCAZ DCT KOVEK DCT REDSI DCT MEBAN
Aircraft B738/M-SDFGHIJ1LORVWXYZ/LB1

Departure

Time 2026-04-28 12:19
Airport Hurghada International Airport (HEGN)

Arrival

Time 2026-04-28 16:41
Airport Katowice Wojciech Korfanty International Airport (EPKT)
Time Latitude Longitude Altitude Speed Heading
2026-04-28 11:46 27.17710 33.80674 51 ft 0 kts 75°
2026-04-28 12:07 27.17705 33.80654 53 ft 4 kts 77°
2026-04-28 12:07 27.17701 33.80628 54 ft 4 kts 82°
2026-04-28 12:08 27.17698 33.80602 57 ft 4 kts 90°
2026-04-28 12:08 27.17700 33.80577 57 ft 4 kts 110°
2026-04-28 12:08 27.17711 33.80559 54 ft 2 kts 153°
2026-04-28 12:08 27.17712 33.80558 57 ft 1 kts 154°
2026-04-28 12:11 27.17709 33.80560 57 ft 2 kts 154°
2026-04-28 12:11 27.17677 33.80575 55 ft 8 kts 162°
2026-04-28 12:11 27.17618 33.80593 57 ft 9 kts 165°
2026-04-28 12:11 27.17559 33.80611 51 ft 9 kts 165°
2026-04-28 12:12 27.17502 33.80604 53 ft 8 kts 216°
2026-04-28 12:12 27.17479 33.80547 51 ft 8 kts 254°
2026-04-28 12:12 27.17462 33.80479 49 ft 10 kts 255°
2026-04-28 12:12 27.17436 33.80366 50 ft 19 kts 255°
2026-04-28 12:13 27.17399 33.80215 49 ft 20 kts 255°
2026-04-28 12:13 27.17364 33.80068 55 ft 19 kts 255°
2026-04-28 12:13 27.17328 33.79918 51 ft 21 kts 255°
2026-04-28 12:13 27.17291 33.79765 75 ft 20 kts 255°
2026-04-28 12:14 27.17256 33.79616 94 ft 19 kts 255°
2026-04-28 12:14 27.17232 33.79528 99 ft 10 kts 240°
2026-04-28 12:14 27.17178 33.79506 102 ft 9 kts 171°
2026-04-28 12:14 27.17119 33.79523 103 ft 9 kts 165°
2026-04-28 12:15 27.17051 33.79544 105 ft 11 kts 165°
2026-04-28 12:15 27.16964 33.79569 107 ft 15 kts 165°
2026-04-28 12:15 27.16845 33.79604 105 ft 21 kts 165°
2026-04-28 12:15 27.16693 33.79649 104 ft 23 kts 166°
2026-04-28 12:16 27.16540 33.79694 108 ft 22 kts 165°
2026-04-28 12:16 27.16391 33.79739 109 ft 22 kts 166°
2026-04-28 12:16 27.16247 33.79781 114 ft 21 kts 165°
2026-04-28 12:16 27.16107 33.79824 115 ft 21 kts 165°
2026-04-28 12:17 27.15995 33.79856 116 ft 10 kts 172°
2026-04-28 12:17 27.15955 33.79848 119 ft 5 kts 207°
2026-04-28 12:17 27.15931 33.79817 118 ft 5 kts 248°
2026-04-28 12:17 27.15922 33.79775 121 ft 6 kts 256°
2026-04-28 12:18 27.15910 33.79721 119 ft 8 kts 262°
2026-04-28 12:18 27.15954 33.79674 116 ft 11 kts 346°
2026-04-28 12:18 27.16082 33.79635 115 ft 41 kts 345°
2026-04-28 12:18 27.16586 33.79485 112 ft 106 kts 345°
2026-04-28 12:19 27.17490 33.79216 98 ft 160 kts 345°
2026-04-28 12:19 27.18666 33.78864 392 ft 182 kts 346°
2026-04-28 12:19 27.19938 33.78512 1094 ft 190 kts 348°
2026-04-28 12:19 27.21240 33.78166 1683 ft 201 kts 347°
2026-04-28 12:20 27.22669 33.77794 1963 ft 222 kts 346°
2026-04-28 12:20 27.23730 33.77512 2061 ft 240 kts 345°
2026-04-28 12:20 27.26036 33.76917 2500 ft 266 kts 345°
2026-04-28 12:20 27.27238 33.76603 3180 ft 258 kts 346°
2026-04-28 12:21 27.29553 33.75991 4270 ft 261 kts 346°
2026-04-28 12:21 27.30754 33.75675 4745 ft 264 kts 346°
2026-04-28 12:21 27.33144 33.75047 5717 ft 268 kts 346°
2026-04-28 12:21 27.34984 33.74646 6427 ft 271 kts 353°
2026-04-28 12:22 27.36258 33.74534 6897 ft 273 kts 356°
2026-04-28 12:22 27.38172 33.74438 7546 ft 278 kts 356°
2026-04-28 12:22 27.40113 33.74353 8203 ft 280 kts 356°
2026-04-28 12:22 27.42070 33.74258 8891 ft 282 kts 356°
2026-04-28 12:23 27.44042 33.74151 9551 ft 285 kts 356°
2026-04-28 12:23 27.46011 33.74035 10169 ft 289 kts 356°
2026-04-28 12:23 27.48077 33.73908 10585 ft 302 kts 355°
2026-04-28 12:23 27.50225 33.73774 10740 ft 323 kts 355°
2026-04-28 12:24 27.52529 33.73627 10894 ft 341 kts 355°
2026-04-28 12:24 27.54882 33.73476 11036 ft 358 kts 355°
2026-04-28 12:24 27.57405 33.73315 11379 ft 368 kts 355°
2026-04-28 12:24 27.59974 33.73130 11915 ft 371 kts 353°
2026-04-28 12:25 27.62539 33.72798 12509 ft 372 kts 351°
2026-04-28 12:25 27.65113 33.72387 13061 ft 375 kts 350°
2026-04-28 12:25 27.67706 33.71956 13564 ft 379 kts 350°
2026-04-28 12:25 27.70326 33.71522 14081 ft 382 kts 350°
2026-04-28 12:26 27.72969 33.71093 14605 ft 385 kts 350°
2026-04-28 12:26 27.75637 33.70666 15063 ft 389 kts 349°
2026-04-28 12:26 27.78333 33.70243 15552 ft 392 kts 349°
2026-04-28 12:26 27.81047 33.69820 16056 ft 395 kts 349°
2026-04-28 12:27 27.83781 33.69396 16540 ft 398 kts 349°
2026-04-28 12:27 27.86539 33.68969 16950 ft 402 kts 349°
2026-04-28 12:27 27.89321 33.68539 17413 ft 406 kts 349°
2026-04-28 12:27 27.92125 33.68104 17892 ft 408 kts 349°
2026-04-28 12:28 27.94945 33.67667 18334 ft 411 kts 348°
2026-04-28 12:28 27.97785 33.67225 18750 ft 414 kts 348°
2026-04-28 12:28 28.00651 33.66779 19163 ft 417 kts 348°
2026-04-28 12:28 28.03532 33.66331 19592 ft 419 kts 348°
2026-04-28 12:29 28.09308 33.65432 20396 ft 424 kts 348°
2026-04-28 12:29 28.12240 33.64975 20793 ft 427 kts 348°
2026-04-28 12:29 28.15190 33.64515 21182 ft 429 kts 348°
2026-04-28 12:30 28.18149 33.64028 21548 ft 431 kts 345°
2026-04-28 12:30 28.21008 33.63083 21892 ft 427 kts 333°
2026-04-28 12:30 28.23644 33.61561 22267 ft 424 kts 324°
2026-04-28 12:30 28.25992 33.59573 22625 ft 421 kts 316°
2026-04-28 12:31 28.28227 33.57412 22975 ft 423 kts 315°
2026-04-28 12:31 28.30460 33.55229 23280 ft 425 kts 315°
2026-04-28 12:31 28.32708 33.53031 23623 ft 428 kts 315°
2026-04-28 12:31 28.34972 33.50829 23937 ft 430 kts 315°
2026-04-28 12:32 28.37252 33.48621 24270 ft 431 kts 316°
2026-04-28 12:32 28.39541 33.46413 24578 ft 433 kts 316°
2026-04-28 12:32 28.41841 33.44201 24879 ft 434 kts 315°
2026-04-28 12:32 28.44152 33.41980 25175 ft 436 kts 316°
2026-04-28 12:33 28.46470 33.39753 25465 ft 437 kts 315°
2026-04-28 12:33 28.48796 33.37515 25683 ft 440 kts 315°
2026-04-28 12:33 28.51135 33.35265 25955 ft 441 kts 316°
2026-04-28 12:33 28.53483 33.33004 26220 ft 443 kts 315°
2026-04-28 12:34 28.55838 33.30734 26470 ft 444 kts 315°
2026-04-28 12:34 28.58198 33.28458 26733 ft 446 kts 315°
2026-04-28 12:34 28.60565 33.26173 26991 ft 447 kts 315°
2026-04-28 12:34 28.62940 33.23880 27237 ft 448 kts 315°
2026-04-28 12:35 28.65325 33.21576 27467 ft 450 kts 315°
2026-04-28 12:35 28.67712 33.19268 27724 ft 451 kts 315°
2026-04-28 12:35 28.70100 33.16958 27999 ft 450 kts 315°
2026-04-28 12:35 28.72484 33.14651 28342 ft 449 kts 315°
2026-04-28 12:36 28.74859 33.12352 28687 ft 447 kts 315°
2026-04-28 12:36 28.77227 33.10058 28988 ft 446 kts 315°
2026-04-28 12:36 28.79590 33.07766 29281 ft 446 kts 315°
2026-04-28 12:36 28.81949 33.05477 29586 ft 445 kts 315°
2026-04-28 12:37 28.84300 33.03194 29900 ft 444 kts 315°
2026-04-28 12:37 28.86649 33.00912 30220 ft 442 kts 315°
2026-04-28 12:37 28.88987 32.98639 30499 ft 442 kts 315°
2026-04-28 12:37 28.91319 32.96371 30798 ft 440 kts 315°
2026-04-28 12:38 28.93645 32.94107 31100 ft 438 kts 314°
2026-04-28 12:38 28.95962 32.91850 31374 ft 437 kts 314°
2026-04-28 12:38 28.98273 32.89598 31666 ft 436 kts 314°
2026-04-28 12:38 29.00572 32.87357 31960 ft 434 kts 314°
2026-04-28 12:39 29.02865 32.85119 32264 ft 432 kts 314°
2026-04-28 12:39 29.05144 32.82895 32538 ft 430 kts 313°
2026-04-28 12:39 29.07419 32.80672 32766 ft 430 kts 313°
2026-04-28 12:39 29.09687 32.78452 32998 ft 429 kts 313°
2026-04-28 12:40 29.11952 32.76237 33272 ft 427 kts 313°
2026-04-28 12:40 29.14204 32.74032 33525 ft 426 kts 313°
2026-04-28 12:40 29.16452 32.71830 33707 ft 426 kts 313°
2026-04-28 12:40 29.18702 32.69625 33894 ft 425 kts 313°
2026-04-28 12:41 29.20948 32.67422 34127 ft 424 kts 312°
2026-04-28 12:41 29.23181 32.65231 34369 ft 422 kts 312°
2026-04-28 12:41 29.25406 32.63047 34546 ft 422 kts 312°
2026-04-28 12:41 29.27624 32.60844 34686 ft 421 kts 310°
2026-04-28 12:42 29.29609 32.58434 34872 ft 412 kts 302°
2026-04-28 12:42 29.31346 32.55891 35080 ft 410 kts 301°
2026-04-28 12:42 29.33114 32.53278 35236 ft 409 kts 301°
2026-04-28 12:42 29.34857 32.50704 35370 ft 410 kts 302°
2026-04-28 12:43 29.36606 32.48128 35546 ft 409 kts 302°
2026-04-28 12:43 29.38332 32.45596 35747 ft 408 kts 302°
2026-04-28 12:43 29.40077 32.43041 35933 ft 406 kts 302°
2026-04-28 12:44 29.43574 32.37923 35997 ft 409 kts 302°
2026-04-28 12:44 29.47079 32.32793 36011 ft 408 kts 302°
2026-04-28 12:45 29.50574 32.27672 36011 ft 407 kts 302°
2026-04-28 12:45 29.54066 32.22548 36017 ft 408 kts 301°
2026-04-28 12:46 29.57561 32.17411 36011 ft 408 kts 302°
2026-04-28 12:46 29.61048 32.12282 36006 ft 407 kts 302°
2026-04-28 12:47 29.64527 32.07158 36009 ft 406 kts 302°
2026-04-28 12:47 29.67998 32.02039 36011 ft 405 kts 302°
2026-04-28 12:48 29.71458 31.96927 36022 ft 405 kts 302°
2026-04-28 12:48 29.74916 31.91812 36015 ft 405 kts 302°
2026-04-28 12:49 29.78378 31.86687 36018 ft 405 kts 302°
2026-04-28 12:49 29.81752 31.81502 36018 ft 404 kts 301°
2026-04-28 12:50 29.85090 31.76284 36023 ft 405 kts 301°
2026-04-28 12:50 29.88443 31.71060 36017 ft 406 kts 301°
2026-04-28 12:51 29.91801 31.65836 36020 ft 405 kts 301°
2026-04-28 12:51 29.95169 31.60613 36012 ft 406 kts 301°
2026-04-28 12:52 29.98541 31.55387 36009 ft 406 kts 301°
2026-04-28 12:52 30.01914 31.50147 36001 ft 407 kts 301°
2026-04-28 12:53 30.05286 31.44901 35997 ft 407 kts 301°
2026-04-28 12:53 30.08669 31.39653 36000 ft 408 kts 303°
2026-04-28 12:54 30.12707 31.34948 36000 ft 415 kts 311°
2026-04-28 12:54 30.16934 31.30477 35992 ft 415 kts 311°
2026-04-28 12:55 30.21200 31.25933 35996 ft 414 kts 311°
2026-04-28 12:55 30.25418 31.21412 35999 ft 413 kts 310°
2026-04-28 12:56 30.29626 31.16886 36001 ft 413 kts 310°
2026-04-28 12:56 30.33823 31.12365 36006 ft 412 kts 311°
2026-04-28 12:57 30.37985 31.07874 36010 ft 412 kts 311°
2026-04-28 12:57 30.42173 31.03353 36009 ft 412 kts 311°
2026-04-28 12:58 30.46357 30.98828 36010 ft 412 kts 311°
2026-04-28 12:58 30.50545 30.94295 36010 ft 412 kts 311°
2026-04-28 12:59 30.54730 30.89759 36010 ft 412 kts 311°
2026-04-28 12:59 30.58918 30.85215 36018 ft 412 kts 311°
2026-04-28 13:00 30.63105 30.80666 36026 ft 412 kts 311°
2026-04-28 13:00 30.67290 30.76113 36029 ft 412 kts 311°
2026-04-28 13:01 30.71476 30.71553 36029 ft 413 kts 311°
2026-04-28 13:01 30.75663 30.66987 36027 ft 413 kts 311°
2026-04-28 13:02 30.79845 30.62422 36035 ft 412 kts 311°
2026-04-28 13:02 30.84025 30.57851 36039 ft 412 kts 311°
2026-04-28 13:03 30.88208 30.53273 36036 ft 413 kts 311°
2026-04-28 13:03 30.92388 30.48690 36039 ft 413 kts 311°
2026-04-28 13:04 30.96570 30.44100 36036 ft 413 kts 311°
2026-04-28 13:04 31.00754 30.39502 36046 ft 414 kts 311°
2026-04-28 13:05 31.04938 30.34898 36056 ft 414 kts 311°
2026-04-28 13:05 31.08596 30.29836 36060 ft 405 kts 297°
2026-04-28 13:06 31.10683 30.25000 36034 ft 400 kts 286°
2026-04-28 13:06 31.12359 30.18824 36052 ft 399 kts 285°
2026-04-28 13:07 31.14018 30.12640 36045 ft 400 kts 285°
2026-04-28 13:07 31.15710 30.06440 36053 ft 401 kts 285°
2026-04-28 13:08 31.17416 30.00229 36037 ft 403 kts 288°
2026-04-28 13:08 31.18713 29.97315 36058 ft 408 kts 302°
2026-04-28 13:08 31.20536 29.94752 36043 ft 414 kts 310°
2026-04-28 13:08 31.22741 29.92556 36045 ft 422 kts 322°
2026-04-28 13:09 31.25314 29.90855 36071 ft 426 kts 326°
2026-04-28 13:09 31.30576 29.87645 36061 ft 427 kts 326°
2026-04-28 13:10 31.35845 29.84428 36037 ft 427 kts 326°
2026-04-28 13:10 31.41089 29.81172 36043 ft 426 kts 326°
2026-04-28 13:11 31.46320 29.77896 36053 ft 426 kts 326°
2026-04-28 13:11 31.51542 29.74618 36045 ft 425 kts 326°
2026-04-28 13:12 31.56755 29.71339 36046 ft 425 kts 326°
2026-04-28 13:12 31.61961 29.68062 36040 ft 425 kts 326°
2026-04-28 13:13 31.67164 29.64783 36046 ft 424 kts 326°
2026-04-28 13:13 31.72327 29.61527 36053 ft 424 kts 326°
2026-04-28 13:14 31.77526 29.58240 36051 ft 425 kts 326°
2026-04-28 13:14 31.82727 29.54951 36049 ft 425 kts 326°
2026-04-28 13:15 31.87932 29.51654 36061 ft 425 kts 326°
2026-04-28 13:15 31.93141 29.48349 36051 ft 425 kts 326°
2026-04-28 13:16 31.98349 29.45043 36048 ft 425 kts 326°
2026-04-28 13:16 32.03554 29.41731 36058 ft 425 kts 326°
2026-04-28 13:17 32.08764 29.38398 36052 ft 426 kts 326°
2026-04-28 13:17 32.13971 29.35064 36048 ft 426 kts 326°
2026-04-28 13:18 32.19183 29.31724 36052 ft 426 kts 326°
2026-04-28 13:18 32.24396 29.28382 36051 ft 427 kts 326°
2026-04-28 13:19 32.29622 29.25036 36039 ft 427 kts 326°
2026-04-28 13:19 32.34842 29.21689 36044 ft 427 kts 326°
2026-04-28 13:20 32.40066 29.18332 36041 ft 427 kts 326°
2026-04-28 13:20 32.45287 29.14973 36048 ft 427 kts 326°
2026-04-28 13:21 32.50505 29.11611 36044 ft 427 kts 326°
2026-04-28 13:21 32.55687 29.08268 36047 ft 427 kts 326°
2026-04-28 13:22 32.60933 29.04880 36055 ft 426 kts 326°
2026-04-28 13:22 32.66105 29.01534 36036 ft 426 kts 326°
2026-04-28 13:23 32.71313 28.98161 36039 ft 426 kts 326°
2026-04-28 13:23 32.76513 28.94788 36037 ft 426 kts 326°
2026-04-28 13:24 32.81716 28.91410 36035 ft 426 kts 326°
2026-04-28 13:24 32.86913 28.88029 36035 ft 426 kts 326°
2026-04-28 13:25 32.92105 28.84648 36045 ft 426 kts 326°
2026-04-28 13:25 32.97301 28.81258 36030 ft 426 kts 326°
2026-04-28 13:26 33.02499 28.77866 36043 ft 426 kts 326°
2026-04-28 13:26 33.07701 28.74465 36027 ft 427 kts 326°
2026-04-28 13:27 33.12904 28.71056 36028 ft 427 kts 326°
2026-04-28 13:27 33.18116 28.67639 36028 ft 427 kts 327°
2026-04-28 13:28 33.23327 28.64218 36023 ft 428 kts 327°
2026-04-28 13:28 33.28508 28.60813 36016 ft 428 kts 327°
2026-04-28 13:29 33.33725 28.57377 36018 ft 428 kts 327°
2026-04-28 13:29 33.38939 28.53939 36020 ft 428 kts 327°
2026-04-28 13:30 33.44159 28.50494 36019 ft 428 kts 327°
2026-04-28 13:30 33.49383 28.47042 36014 ft 429 kts 327°
2026-04-28 13:31 33.57216 28.41854 36017 ft 429 kts 327°
2026-04-28 13:31 33.62439 28.38387 36020 ft 429 kts 327°
2026-04-28 13:32 33.67665 28.34916 36011 ft 429 kts 327°
2026-04-28 13:32 33.72885 28.31443 36008 ft 429 kts 327°
2026-04-28 13:33 33.78107 28.27964 36008 ft 429 kts 327°
2026-04-28 13:33 33.83315 28.24479 36010 ft 429 kts 327°
2026-04-28 13:34 33.88523 28.20959 35997 ft 429 kts 327°
2026-04-28 13:34 33.93778 28.17533 35987 ft 431 kts 331°
2026-04-28 13:35 33.99273 28.14603 35990 ft 432 kts 333°
2026-04-28 13:35 34.04810 28.11781 35991 ft 432 kts 333°
2026-04-28 13:36 34.10332 28.08910 35984 ft 432 kts 333°
2026-04-28 13:36 34.15837 28.06002 35982 ft 432 kts 332°
2026-04-28 13:37 34.21331 28.03079 35979 ft 431 kts 332°
2026-04-28 13:37 34.26823 28.00149 35982 ft 431 kts 332°
2026-04-28 13:38 34.32310 27.97219 35979 ft 431 kts 332°
2026-04-28 13:38 34.37794 27.94285 35971 ft 431 kts 332°
2026-04-28 13:39 34.43273 27.91348 35966 ft 431 kts 332°
2026-04-28 13:39 34.48747 27.88411 35974 ft 431 kts 332°
2026-04-28 13:40 34.54193 27.85485 35974 ft 431 kts 332°
2026-04-28 13:40 34.59672 27.82538 35972 ft 431 kts 332°
2026-04-28 13:41 34.65159 27.79583 35971 ft 431 kts 332°
2026-04-28 13:41 34.70638 27.76626 35972 ft 431 kts 332°
2026-04-28 13:42 34.76124 27.73662 35975 ft 431 kts 332°
2026-04-28 13:42 34.81612 27.70694 35973 ft 432 kts 332°
2026-04-28 13:43 34.87101 27.67720 35969 ft 432 kts 332°
2026-04-28 13:43 34.92593 27.64739 35961 ft 432 kts 333°
2026-04-28 13:44 34.98093 27.61749 35967 ft 433 kts 333°
2026-04-28 13:44 35.03593 27.58758 35961 ft 433 kts 333°
2026-04-28 13:45 35.09102 27.55754 35965 ft 434 kts 333°
2026-04-28 13:45 35.14615 27.52743 35962 ft 434 kts 333°
2026-04-28 13:46 35.20137 27.49725 35965 ft 435 kts 333°
2026-04-28 13:46 35.25664 27.46699 35963 ft 435 kts 333°
2026-04-28 13:47 35.31190 27.43669 35963 ft 435 kts 333°
2026-04-28 13:47 35.36711 27.40637 35966 ft 435 kts 333°
2026-04-28 13:48 35.42234 27.37597 35969 ft 435 kts 333°
2026-04-28 13:48 35.47762 27.34554 35963 ft 435 kts 333°
2026-04-28 13:49 35.53251 27.31526 35966 ft 435 kts 333°
2026-04-28 13:49 35.58779 27.28471 35962 ft 435 kts 333°
2026-04-28 13:50 35.64297 27.25418 35962 ft 435 kts 333°
2026-04-28 13:50 35.69808 27.22366 35962 ft 434 kts 333°
2026-04-28 13:51 35.75310 27.19314 35965 ft 433 kts 333°
2026-04-28 13:51 35.80805 27.16258 35967 ft 433 kts 333°
2026-04-28 13:52 35.86297 27.13199 35961 ft 433 kts 333°
2026-04-28 13:52 35.91783 27.10141 35970 ft 432 kts 333°
2026-04-28 13:53 35.97267 27.07079 35974 ft 432 kts 333°
2026-04-28 13:53 36.01817 27.04534 35980 ft 432 kts 333°
2026-04-28 13:54 36.07293 27.01469 35979 ft 432 kts 333°
2026-04-28 13:54 36.12772 26.98395 35984 ft 433 kts 333°
2026-04-28 13:55 36.18260 26.95312 35982 ft 433 kts 333°
2026-04-28 13:55 36.23753 26.92222 35981 ft 434 kts 333°
2026-04-28 13:56 36.29253 26.89123 35977 ft 435 kts 333°
2026-04-28 13:56 36.34759 26.86016 35985 ft 435 kts 333°
2026-04-28 13:57 36.40268 26.82902 35980 ft 435 kts 333°
2026-04-28 13:57 36.45780 26.79783 35980 ft 435 kts 333°
2026-04-28 13:58 36.51284 26.76662 35988 ft 435 kts 333°
2026-04-28 13:58 36.56789 26.73536 35981 ft 435 kts 333°
2026-04-28 13:59 36.62285 26.70410 35981 ft 434 kts 333°
2026-04-28 13:59 36.67780 26.67279 35981 ft 434 kts 333°
2026-04-28 14:00 36.73275 26.64142 35983 ft 434 kts 333°
2026-04-28 14:00 36.78766 26.61005 35980 ft 434 kts 333°
2026-04-28 14:01 36.84217 26.57886 35985 ft 434 kts 333°
2026-04-28 14:01 36.89693 26.54747 35993 ft 433 kts 333°
2026-04-28 14:02 36.95166 26.51605 35992 ft 432 kts 333°
2026-04-28 14:02 37.00625 26.48465 35991 ft 432 kts 333°
2026-04-28 14:03 37.06082 26.45320 35993 ft 432 kts 333°
2026-04-28 14:03 37.11536 26.42176 36003 ft 431 kts 332°
2026-04-28 14:04 37.16987 26.39026 35998 ft 431 kts 332°
2026-04-28 14:04 37.22438 26.35869 35998 ft 431 kts 332°
2026-04-28 14:05 37.27888 26.32709 35999 ft 432 kts 332°
2026-04-28 14:05 37.33344 26.29542 35997 ft 432 kts 333°
2026-04-28 14:06 37.38803 26.26373 36000 ft 432 kts 333°
2026-04-28 14:06 37.44255 26.23194 36009 ft 432 kts 333°
2026-04-28 14:07 37.49717 26.20005 36003 ft 433 kts 333°
2026-04-28 14:07 37.55179 26.16811 36002 ft 433 kts 333°
2026-04-28 14:08 37.60646 26.13612 36004 ft 433 kts 333°
2026-04-28 14:08 37.66106 26.10411 36009 ft 433 kts 333°
2026-04-28 14:09 37.71533 26.07225 36022 ft 433 kts 333°
2026-04-28 14:09 37.76989 26.04016 36017 ft 432 kts 333°
2026-04-28 14:10 37.82440 26.00804 36016 ft 432 kts 333°
2026-04-28 14:10 37.87881 25.97593 36021 ft 431 kts 333°
2026-04-28 14:11 37.93320 25.94377 36017 ft 431 kts 333°
2026-04-28 14:11 37.98752 25.91162 36020 ft 430 kts 332°
2026-04-28 14:12 38.04179 25.87943 36019 ft 430 kts 332°
2026-04-28 14:12 38.09595 25.84727 36017 ft 430 kts 332°
2026-04-28 14:13 38.15008 25.81506 36020 ft 429 kts 332°
2026-04-28 14:13 38.20418 25.78282 36019 ft 429 kts 332°
2026-04-28 14:14 38.25826 25.75053 36020 ft 429 kts 332°
2026-04-28 14:14 38.31236 25.71819 36020 ft 430 kts 333°
2026-04-28 14:15 38.36653 25.68574 36023 ft 430 kts 333°
2026-04-28 14:15 38.42067 25.65327 36029 ft 430 kts 333°
2026-04-28 14:16 38.47485 25.62072 36028 ft 431 kts 333°
2026-04-28 14:16 38.52905 25.58808 36029 ft 431 kts 333°
2026-04-28 14:17 38.58326 25.55543 36048 ft 431 kts 333°
2026-04-28 14:17 38.63750 25.52266 36031 ft 431 kts 333°
2026-04-28 14:18 38.69168 25.48989 36036 ft 430 kts 333°
2026-04-28 14:18 38.74534 25.45737 36035 ft 429 kts 333°
2026-04-28 14:19 38.79926 25.42463 36035 ft 428 kts 333°
2026-04-28 14:19 38.85305 25.39193 36043 ft 427 kts 333°
2026-04-28 14:20 38.90670 25.35925 36052 ft 426 kts 333°
2026-04-28 14:20 38.96020 25.32661 36044 ft 426 kts 333°
2026-04-28 14:21 39.01492 25.29740 36052 ft 426 kts 338°
2026-04-28 14:21 39.07068 25.27164 36057 ft 425 kts 339°
2026-04-28 14:22 39.12632 25.24590 36063 ft 425 kts 338°
2026-04-28 14:22 39.18183 25.21963 36067 ft 425 kts 338°
2026-04-28 14:23 39.23720 25.19306 36065 ft 425 kts 338°
2026-04-28 14:23 39.29258 25.16641 36067 ft 425 kts 338°
2026-04-28 14:24 39.34798 25.13973 36069 ft 425 kts 338°
2026-04-28 14:24 39.40346 25.11295 36066 ft 426 kts 338°
2026-04-28 14:25 39.45889 25.08615 36074 ft 426 kts 338°
2026-04-28 14:25 39.51438 25.05927 36076 ft 426 kts 338°
2026-04-28 14:26 39.56995 25.03232 36073 ft 426 kts 338°
2026-04-28 14:26 39.62550 25.00532 36075 ft 427 kts 338°
2026-04-28 14:27 39.68113 24.97823 36072 ft 427 kts 338°
2026-04-28 14:27 39.73672 24.95113 36077 ft 427 kts 338°
2026-04-28 14:28 39.79228 24.92400 36074 ft 426 kts 338°
2026-04-28 14:28 39.84773 24.89687 36070 ft 426 kts 338°
2026-04-28 14:29 39.90311 24.86971 36075 ft 425 kts 338°
2026-04-28 14:29 39.95843 24.84254 36076 ft 424 kts 338°
2026-04-28 14:30 40.01360 24.81540 36087 ft 424 kts 338°
2026-04-28 14:30 40.06871 24.78825 36084 ft 423 kts 338°
2026-04-28 14:31 40.12362 24.76114 36079 ft 421 kts 338°
2026-04-28 14:31 40.17831 24.73411 36081 ft 420 kts 338°
2026-04-28 14:32 40.23289 24.70707 36083 ft 419 kts 338°
2026-04-28 14:32 40.28734 24.68005 36075 ft 418 kts 338°
2026-04-28 14:33 40.34178 24.65301 36074 ft 418 kts 338°
2026-04-28 14:33 40.39578 24.62610 36078 ft 418 kts 338°
2026-04-28 14:34 40.47745 24.58534 36073 ft 419 kts 338°
2026-04-28 14:35 40.53192 24.55811 36079 ft 419 kts 338°
2026-04-28 14:35 40.58648 24.53078 36075 ft 420 kts 338°
2026-04-28 14:36 40.64106 24.50340 36072 ft 420 kts 338°
2026-04-28 14:36 40.69574 24.47591 36075 ft 421 kts 338°
2026-04-28 14:37 40.75051 24.44832 36076 ft 421 kts 338°
2026-04-28 14:37 40.80528 24.42069 36074 ft 421 kts 338°
2026-04-28 14:38 40.86001 24.39304 36075 ft 421 kts 337°
2026-04-28 14:38 40.91469 24.36536 36072 ft 420 kts 337°
2026-04-28 14:39 40.97030 24.34145 36075 ft 421 kts 342°
2026-04-28 14:39 41.01731 24.32498 36074 ft 420 kts 343°
2026-04-28 14:40 41.07384 24.30535 36077 ft 420 kts 343°
2026-04-28 14:40 41.13019 24.28520 36070 ft 419 kts 342°
2026-04-28 14:41 41.19539 24.26140 36074 ft 417 kts 342°
2026-04-28 14:41 41.24225 24.24417 36077 ft 417 kts 342°
2026-04-28 14:42 41.29807 24.22363 36070 ft 416 kts 342°
2026-04-28 14:42 41.35382 24.20308 36075 ft 415 kts 342°
2026-04-28 14:43 41.40942 24.18252 36068 ft 414 kts 341°
2026-04-28 14:43 41.46490 24.16187 36069 ft 413 kts 341°
2026-04-28 14:44 41.52023 24.14133 36061 ft 413 kts 341°
2026-04-28 14:44 41.57551 24.12081 36066 ft 412 kts 341°
2026-04-28 14:45 41.63041 24.10040 36066 ft 412 kts 341°
2026-04-28 14:45 41.68565 24.07981 36065 ft 412 kts 341°
2026-04-28 14:46 41.74082 24.05922 36059 ft 412 kts 341°
2026-04-28 14:46 41.79603 24.03858 36059 ft 412 kts 341°
2026-04-28 14:47 41.85121 24.01791 36053 ft 412 kts 341°
2026-04-28 14:47 41.90638 23.99721 36057 ft 412 kts 341°
2026-04-28 14:48 41.96158 23.97643 36047 ft 412 kts 341°
2026-04-28 14:48 42.01684 23.95565 36048 ft 412 kts 341°
2026-04-28 14:49 42.07203 23.93485 36053 ft 412 kts 341°
2026-04-28 14:49 42.12716 23.91400 36063 ft 412 kts 341°
2026-04-28 14:50 42.18223 23.89314 36055 ft 411 kts 341°
2026-04-28 14:50 42.23730 23.87224 36058 ft 411 kts 341°
2026-04-28 14:51 42.29236 23.85132 36044 ft 412 kts 341°
2026-04-28 14:51 42.34753 23.83031 36053 ft 412 kts 341°
2026-04-28 14:52 42.40273 23.80926 36042 ft 412 kts 341°
2026-04-28 14:52 42.45793 23.78817 36050 ft 412 kts 341°
2026-04-28 14:53 42.51320 23.76702 36047 ft 413 kts 341°
2026-04-28 14:53 42.56852 23.74585 36037 ft 413 kts 341°
2026-04-28 14:54 42.62384 23.72458 36048 ft 413 kts 341°
2026-04-28 14:54 42.67917 23.70325 36048 ft 413 kts 341°
2026-04-28 14:55 42.73446 23.68192 36035 ft 413 kts 341°
2026-04-28 14:55 42.78965 23.66060 36045 ft 412 kts 340°
2026-04-28 14:56 42.84476 23.63927 36046 ft 412 kts 340°
2026-04-28 14:56 42.89984 23.61792 36049 ft 411 kts 340°
2026-04-28 14:57 42.95453 23.59668 36053 ft 411 kts 340°
2026-04-28 14:57 43.00948 23.57530 36038 ft 411 kts 340°
2026-04-28 14:58 43.06439 23.55389 36051 ft 410 kts 340°
2026-04-28 14:58 43.11934 23.53242 36035 ft 410 kts 340°
2026-04-28 14:59 43.17416 23.51094 36055 ft 410 kts 340°
2026-04-28 14:59 43.22902 23.48943 36052 ft 410 kts 340°
2026-04-28 15:00 43.28381 23.46790 36045 ft 410 kts 340°
2026-04-28 15:00 43.33861 23.44634 36040 ft 410 kts 340°
2026-04-28 15:01 43.39342 23.42473 36054 ft 410 kts 340°
2026-04-28 15:01 43.44825 23.40307 36059 ft 410 kts 340°
2026-04-28 15:02 43.50313 23.38135 36060 ft 410 kts 340°
2026-04-28 15:02 43.55795 23.35960 36044 ft 410 kts 340°
2026-04-28 15:03 43.61274 23.33783 36057 ft 410 kts 340°
2026-04-28 15:03 43.66759 23.31602 36054 ft 410 kts 340°
2026-04-28 15:04 43.72245 23.29416 36058 ft 410 kts 340°
2026-04-28 15:04 43.77697 23.27239 36056 ft 411 kts 339°
2026-04-28 15:05 43.83173 23.25015 36064 ft 409 kts 336°
2026-04-28 15:05 43.88304 23.21812 36055 ft 403 kts 330°
2026-04-28 15:06 43.93326 23.18390 36051 ft 401 kts 330°
2026-04-28 15:06 43.98329 23.15006 36056 ft 399 kts 330°
2026-04-28 15:07 44.03312 23.11664 36051 ft 397 kts 330°
2026-04-28 15:07 44.08272 23.08343 36058 ft 394 kts 330°
2026-04-28 15:08 44.13206 23.05035 36048 ft 393 kts 330°
2026-04-28 15:08 44.18123 23.01734 36058 ft 392 kts 330°
2026-04-28 15:09 44.23033 22.98428 36055 ft 392 kts 330°
2026-04-28 15:09 44.27936 22.95123 36056 ft 392 kts 330°
2026-04-28 15:10 44.32852 22.91805 36063 ft 393 kts 330°
2026-04-28 15:10 44.37779 22.88471 36067 ft 394 kts 330°
2026-04-28 15:11 44.42716 22.85124 36070 ft 395 kts 329°
2026-04-28 15:11 44.47667 22.81762 36066 ft 396 kts 329°
2026-04-28 15:12 44.52635 22.78382 36062 ft 398 kts 329°
2026-04-28 15:12 44.57617 22.74985 36066 ft 399 kts 329°
2026-04-28 15:13 44.62607 22.71578 36072 ft 399 kts 329°
2026-04-28 15:13 44.67588 22.68172 36071 ft 398 kts 329°
2026-04-28 15:14 44.72560 22.64765 36075 ft 397 kts 329°
2026-04-28 15:14 44.77522 22.61356 36076 ft 397 kts 329°
2026-04-28 15:15 44.82430 22.57934 36073 ft 396 kts 329°
2026-04-28 15:15 44.87348 22.54461 36074 ft 395 kts 329°
2026-04-28 15:16 44.92257 22.50990 36082 ft 394 kts 329°
2026-04-28 15:16 44.97149 22.47534 36093 ft 393 kts 329°
2026-04-28 15:17 45.02046 22.44068 36086 ft 394 kts 329°
2026-04-28 15:17 45.06945 22.40594 36081 ft 394 kts 329°
2026-04-28 15:18 45.11834 22.37123 36094 ft 393 kts 328°
2026-04-28 15:18 45.16719 22.33647 36090 ft 393 kts 328°
2026-04-28 15:19 45.21600 22.30166 36089 ft 393 kts 328°
2026-04-28 15:19 45.26475 22.26684 36097 ft 392 kts 328°
2026-04-28 15:20 45.31338 22.23203 36103 ft 391 kts 328°
2026-04-28 15:20 45.36198 22.19718 36105 ft 391 kts 328°
2026-04-28 15:21 45.41053 22.16230 36102 ft 391 kts 328°
2026-04-28 15:21 45.45904 22.12737 36095 ft 391 kts 328°
2026-04-28 15:22 45.50752 22.09240 36104 ft 391 kts 328°
2026-04-28 15:22 45.55601 22.05737 36105 ft 391 kts 328°
2026-04-28 15:23 45.60430 22.02241 36104 ft 392 kts 328°
2026-04-28 15:23 45.65288 21.98716 36099 ft 392 kts 328°
2026-04-28 15:24 45.70146 21.95185 36100 ft 392 kts 328°
2026-04-28 15:24 45.75003 21.91647 36102 ft 392 kts 328°
2026-04-28 15:25 45.79859 21.88105 36104 ft 392 kts 328°
2026-04-28 15:25 45.84712 21.84558 36111 ft 391 kts 328°
2026-04-28 15:26 45.89556 21.81009 36120 ft 391 kts 328°
2026-04-28 15:26 45.94523 21.77762 36116 ft 395 kts 334°
2026-04-28 15:27 45.99695 21.75091 36122 ft 396 kts 334°
2026-04-28 15:27 46.04003 21.72872 36127 ft 395 kts 334°
2026-04-28 15:28 46.09173 21.70188 36118 ft 395 kts 334°
2026-04-28 15:28 46.14340 21.67487 36122 ft 395 kts 334°
2026-04-28 15:29 46.19494 21.64785 36124 ft 394 kts 334°
2026-04-28 15:29 46.24647 21.62077 36132 ft 394 kts 334°
2026-04-28 15:30 46.29799 21.59363 36128 ft 394 kts 334°
2026-04-28 15:30 46.34944 21.56647 36135 ft 394 kts 334°
2026-04-28 15:31 46.40091 21.53926 36127 ft 394 kts 334°
2026-04-28 15:31 46.45240 21.51199 36127 ft 394 kts 334°
2026-04-28 15:32 46.50391 21.48467 36134 ft 394 kts 334°
2026-04-28 15:32 46.55537 21.45711 36125 ft 393 kts 332°
2026-04-28 15:33 46.60439 21.42293 36135 ft 391 kts 328°
2026-04-28 15:33 46.65300 21.38740 36130 ft 391 kts 328°
2026-04-28 15:34 46.70171 21.35189 36124 ft 392 kts 328°
2026-04-28 15:34 46.75061 21.31637 36125 ft 393 kts 328°
2026-04-28 15:35 46.79921 21.28108 36135 ft 393 kts 328°
2026-04-28 15:35 46.87275 21.22758 36130 ft 394 kts 328°
2026-04-28 15:36 46.92184 21.19178 36129 ft 395 kts 328°
2026-04-28 15:36 46.97096 21.15589 36131 ft 395 kts 328°
2026-04-28 15:37 47.02012 21.11989 36131 ft 395 kts 328°
2026-04-28 15:37 47.06930 21.08380 36131 ft 395 kts 328°
2026-04-28 15:38 47.11844 21.04767 36132 ft 395 kts 328°
2026-04-28 15:38 47.16749 21.01152 36125 ft 394 kts 328°
2026-04-28 15:39 47.21651 20.97534 36124 ft 394 kts 328°
2026-04-28 15:39 47.26543 20.93912 36130 ft 393 kts 328°
2026-04-28 15:40 47.31427 20.90290 36124 ft 393 kts 328°
2026-04-28 15:40 47.36308 20.86663 36125 ft 393 kts 328°
2026-04-28 15:41 47.41190 20.83028 36131 ft 393 kts 328°
2026-04-28 15:41 47.46067 20.79389 36127 ft 393 kts 328°
2026-04-28 15:42 47.50952 20.75737 36134 ft 394 kts 328°
2026-04-28 15:42 47.55844 20.72070 36131 ft 394 kts 328°
2026-04-28 15:43 47.60740 20.68395 36145 ft 395 kts 328°
2026-04-28 15:43 47.65638 20.64709 36138 ft 395 kts 328°
2026-04-28 15:44 47.70538 20.61015 36134 ft 395 kts 327°
2026-04-28 15:44 47.75435 20.57316 36142 ft 395 kts 327°
2026-04-28 15:45 47.80334 20.53607 36145 ft 396 kts 327°
2026-04-28 15:45 47.85224 20.49943 36140 ft 397 kts 330°
2026-04-28 15:46 47.90372 20.46749 36133 ft 399 kts 332°
2026-04-28 15:46 47.95523 20.43673 36125 ft 399 kts 332°
2026-04-28 15:47 48.00629 20.40600 36135 ft 398 kts 332°
2026-04-28 15:47 48.05755 20.37486 36157 ft 398 kts 332°
2026-04-28 15:48 48.10880 20.34355 36145 ft 398 kts 332°
2026-04-28 15:48 48.16005 20.31216 36149 ft 398 kts 332°
2026-04-28 15:49 48.21123 20.28074 36153 ft 398 kts 332°
2026-04-28 15:49 48.26240 20.24927 36159 ft 398 kts 332°
2026-04-28 15:50 48.31361 20.21769 36159 ft 397 kts 332°
2026-04-28 15:50 48.36467 20.18613 36153 ft 397 kts 332°
2026-04-28 15:51 48.41570 20.15452 36157 ft 396 kts 332°
2026-04-28 15:51 48.46670 20.12288 36159 ft 397 kts 332°
2026-04-28 15:52 48.51748 20.09130 36155 ft 398 kts 332°
2026-04-28 15:52 48.56864 20.05942 36160 ft 398 kts 332°
2026-04-28 15:53 48.61989 20.02740 36164 ft 399 kts 332°
2026-04-28 15:53 48.67134 19.99519 36157 ft 401 kts 332°
2026-04-28 15:54 48.72287 19.96287 36166 ft 401 kts 332°
2026-04-28 15:54 48.77456 19.93037 36147 ft 402 kts 332°
2026-04-28 15:55 48.82595 19.89801 36150 ft 395 kts 332°
2026-04-28 15:55 48.87539 19.86691 36141 ft 371 kts 332°
2026-04-28 15:56 48.92212 19.83736 35950 ft 359 kts 331°
2026-04-28 15:56 48.94521 19.82267 35310 ft 362 kts 331°
2026-04-28 15:56 48.96874 19.80764 34513 ft 371 kts 331°
2026-04-28 15:57 48.99260 19.79243 33997 ft 371 kts 331°
2026-04-28 15:57 49.01623 19.77746 33705 ft 365 kts 331°
2026-04-28 15:57 49.03954 19.76270 33376 ft 361 kts 331°
2026-04-28 15:57 49.06263 19.74800 32958 ft 359 kts 330°
2026-04-28 15:58 49.08559 19.73332 32526 ft 357 kts 331°
2026-04-28 15:58 49.10849 19.71870 32104 ft 356 kts 331°
2026-04-28 15:58 49.13127 19.70416 31701 ft 354 kts 331°
2026-04-28 15:58 49.15391 19.68968 31288 ft 352 kts 331°
2026-04-28 15:59 49.17639 19.67529 30919 ft 350 kts 331°
2026-04-28 15:59 49.19123 19.66578 30675 ft 348 kts 331°
2026-04-28 15:59 49.22155 19.64838 30142 ft 351 kts 339°
2026-04-28 15:59 49.24561 19.64119 29798 ft 354 kts 345°
2026-04-28 16:00 49.27034 19.63940 29435 ft 358 kts 353°
2026-04-28 16:00 49.29524 19.64033 29032 ft 358 kts 353°
2026-04-28 16:00 49.32010 19.64159 28637 ft 357 kts 354°
2026-04-28 16:00 49.34481 19.64280 28298 ft 354 kts 354°
2026-04-28 16:01 49.36936 19.64384 27936 ft 352 kts 353°
2026-04-28 16:01 49.39377 19.64476 27560 ft 350 kts 353°
2026-04-28 16:01 49.41771 19.64561 27181 ft 349 kts 354°
2026-04-28 16:01 49.44198 19.64947 26771 ft 359 kts
2026-04-28 16:02 49.46533 19.66596 26412 ft 372 kts 27°
2026-04-28 16:02 49.48584 19.68906 26298 ft 359 kts 20°
2026-04-28 16:02 49.50846 19.69978 26204 ft 330 kts 355°
2026-04-28 16:02 49.53098 19.69734 25620 ft 324 kts 341°
2026-04-28 16:03 49.55238 19.68566 24686 ft 330 kts 326°
2026-04-28 16:03 49.57190 19.66626 23938 ft 336 kts 322°
2026-04-28 16:03 49.59108 19.64557 23434 ft 337 kts 321°
2026-04-28 16:03 49.61009 19.62475 23052 ft 333 kts 321°
2026-04-28 16:04 49.62891 19.60415 22680 ft 330 kts 322°
2026-04-28 16:04 49.64766 19.58373 22245 ft 329 kts 322°
2026-04-28 16:04 49.66637 19.56344 21820 ft 328 kts 322°
2026-04-28 16:04 49.68495 19.54336 21404 ft 326 kts 322°
2026-04-28 16:05 49.70361 19.52324 20859 ft 328 kts 322°
2026-04-28 16:05 49.72248 19.50288 20233 ft 333 kts 322°
2026-04-28 16:05 49.74149 19.48240 19749 ft 333 kts 323°
2026-04-28 16:05 49.76041 19.46202 19356 ft 330 kts 323°
2026-04-28 16:06 49.77918 19.44180 18934 ft 328 kts 323°
2026-04-28 16:06 49.79784 19.42169 18500 ft 327 kts 323°
2026-04-28 16:06 49.81650 19.40156 18114 ft 327 kts 323°
2026-04-28 16:06 49.83511 19.38156 17832 ft 324 kts 323°
2026-04-28 16:07 49.85357 19.36168 17562 ft 322 kts 323°
2026-04-28 16:07 49.87192 19.34188 17212 ft 322 kts 323°
2026-04-28 16:07 49.90848 19.30229 16602 ft 319 kts 323°
2026-04-28 16:08 49.92667 19.28255 16309 ft 319 kts 323°
2026-04-28 16:08 49.94472 19.26287 15960 ft 316 kts 323°
2026-04-28 16:08 49.96265 19.24325 15511 ft 315 kts 323°
2026-04-28 16:09 49.99788 19.20476 14653 ft 301 kts 323°
2026-04-28 16:09 50.01472 19.18638 14315 ft 291 kts 323°
2026-04-28 16:09 50.03100 19.16861 13994 ft 281 kts 323°
2026-04-28 16:10 50.06204 19.13466 13381 ft 264 kts 323°
2026-04-28 16:10 50.07688 19.11841 13067 ft 257 kts 323°
2026-04-28 16:10 50.10550 19.08704 12514 ft 248 kts 323°
2026-04-28 16:11 50.13378 19.05597 11981 ft 252 kts 323°
2026-04-28 16:11 50.16273 19.02415 11436 ft 255 kts 323°
2026-04-28 16:12 50.19164 18.99235 10886 ft 254 kts 324°
2026-04-28 16:12 50.20604 18.97647 10609 ft 254 kts 324°
2026-04-28 16:13 50.23448 18.94510 10041 ft 247 kts 324°
2026-04-28 16:13 50.24855 18.92956 9763 ft 248 kts 324°
2026-04-28 16:13 50.27719 18.89789 9227 ft 252 kts 325°
2026-04-28 16:14 50.30060 18.87199 8768 ft 249 kts 325°
2026-04-28 16:14 50.32893 18.84064 8198 ft 249 kts 325°
2026-04-28 16:15 50.35676 18.80970 7668 ft 248 kts 326°
2026-04-28 16:15 50.36822 18.79697 7446 ft 247 kts 325°
2026-04-28 16:15 50.37775 18.78595 7252 ft 248 kts 319°
2026-04-28 16:16 50.38887 18.73643 6714 ft 250 kts 272°
2026-04-28 16:16 50.38879 18.70910 6433 ft 250 kts 270°
2026-04-28 16:17 50.39618 18.66101 5880 ft 215 kts 319°
2026-04-28 16:17 50.40814 18.64922 5612 ft 196 kts 339°
2026-04-28 16:17 50.42084 18.64438 5300 ft 183 kts 357°
2026-04-28 16:17 50.43337 18.64391 5085 ft 182 kts
2026-04-28 16:18 50.44608 18.64392 5046 ft 182 kts
2026-04-28 16:18 50.45848 18.64405 5009 ft 173 kts
2026-04-28 16:18 50.46929 18.65046 5004 ft 167 kts 40°
2026-04-28 16:18 50.47550 18.66601 4853 ft 175 kts 79°
2026-04-28 16:19 50.47591 18.68492 4743 ft 173 kts 86°
2026-04-28 16:19 50.47606 18.70359 4586 ft 172 kts 86°
2026-04-28 16:19 50.47616 18.72231 4414 ft 170 kts 87°
2026-04-28 16:19 50.47622 18.74082 4257 ft 169 kts 87°
2026-04-28 16:20 50.47626 18.75919 4108 ft 165 kts 87°
2026-04-28 16:20 50.47630 18.77691 3954 ft 160 kts 86°
2026-04-28 16:20 50.47633 18.79416 3822 ft 158 kts 86°
2026-04-28 16:20 50.47635 18.81150 3701 ft 160 kts 87°
2026-04-28 16:21 50.47635 18.82886 3551 ft 158 kts 87°
2026-04-28 16:21 50.47635 18.84601 3420 ft 157 kts 86°
2026-04-28 16:21 50.47634 18.86321 3287 ft 159 kts 86°
2026-04-28 16:21 50.47633 18.88051 3144 ft 157 kts 86°
2026-04-28 16:22 50.47632 18.89769 2980 ft 159 kts 87°
2026-04-28 16:22 50.47632 18.91494 2762 ft 157 kts 86°
2026-04-28 16:22 50.47630 18.93199 2570 ft 157 kts 86°
2026-04-28 16:22 50.47629 18.94912 2373 ft 157 kts 86°
2026-04-28 16:23 50.47626 18.96634 2159 ft 158 kts 86°
2026-04-28 16:23 50.47624 18.98351 1972 ft 157 kts 86°
2026-04-28 16:23 50.47623 19.00076 1752 ft 158 kts 86°
2026-04-28 16:23 50.47613 19.01791 1553 ft 157 kts 88°
2026-04-28 16:24 50.47603 19.03476 1356 ft 156 kts 87°
2026-04-28 16:24 50.47604 19.05197 1162 ft 155 kts 86°
2026-04-28 16:24 50.47620 19.06967 1453 ft 171 kts 85°
2026-04-28 16:24 50.47656 19.08918 2376 ft 179 kts 85°
2026-04-28 16:25 50.47691 19.10843 3444 ft 174 kts 84°
2026-04-28 16:25 50.47724 19.12820 3905 ft 195 kts 88°
2026-04-28 16:25 50.47691 19.15084 3990 ft 219 kts 89°
2026-04-28 16:25 50.47705 19.17588 3991 ft 236 kts 79°
2026-04-28 16:26 50.48355 19.19889 3986 ft 231 kts 47°
2026-04-28 16:26 50.49669 19.21224 3991 ft 221 kts 13°
2026-04-28 16:26 50.51159 19.21357 4006 ft 216 kts 357°
2026-04-28 16:26 50.52653 19.21206 3998 ft 214 kts 356°
2026-04-28 16:27 50.54113 19.20835 3992 ft 215 kts 336°
2026-04-28 16:27 50.55240 19.19347 3999 ft 216 kts 302°
2026-04-28 16:27 50.55106 19.14784 3998 ft 230 kts 233°
2026-04-28 16:28 50.53851 19.13249 3997 ft 234 kts 199°
2026-04-28 16:28 50.52266 19.13008 4005 ft 229 kts 166°
2026-04-28 16:28 50.50878 19.14125 3984 ft 225 kts 131°
2026-04-28 16:28 50.50128 19.16199 4004 ft 218 kts 102°
2026-04-28 16:29 50.48289 19.19865 4005 ft 231 kts 160°
2026-04-28 16:29 50.45073 19.19862 4002 ft 235 kts 185°
2026-04-28 16:30 50.43446 19.19580 4017 ft 236 kts 186°
2026-04-28 16:30 50.41819 19.19289 4001 ft 234 kts 186°
2026-04-28 16:30 50.40241 19.18740 3982 ft 232 kts 208°
2026-04-28 16:30 50.39075 19.17100 3984 ft 225 kts 242°
2026-04-28 16:31 50.38659 19.14791 4028 ft 222 kts 268°
2026-04-28 16:31 50.38599 19.12344 4006 ft 226 kts 270°
2026-04-28 16:31 50.38571 19.09864 3998 ft 230 kts 271°
2026-04-28 16:31 50.38548 19.07349 3993 ft 231 kts 271°
2026-04-28 16:32 50.38527 19.04851 3993 ft 229 kts 271°
2026-04-28 16:32 50.38485 18.99906 3993 ft 224 kts 271°
2026-04-28 16:32 50.38463 18.97474 3990 ft 222 kts 271°
2026-04-28 16:33 50.38444 18.95067 4002 ft 222 kts 271°
2026-04-28 16:33 50.38432 18.93459 4009 ft 224 kts 271°
2026-04-28 16:33 50.38408 18.90155 4002 ft 227 kts 271°
2026-04-28 16:33 50.38389 18.87685 3998 ft 226 kts 271°
2026-04-28 16:34 50.38370 18.85222 4005 ft 225 kts 271°
2026-04-28 16:34 50.38350 18.82771 3996 ft 225 kts 271°
2026-04-28 16:34 50.38331 18.80323 4001 ft 225 kts 271°
2026-04-28 16:34 50.38311 18.77867 3989 ft 225 kts 271°
2026-04-28 16:35 50.38401 18.75480 3973 ft 214 kts 289°
2026-04-28 16:35 50.39175 18.73616 3991 ft 202 kts 325°
2026-04-28 16:35 50.40437 18.72797 4029 ft 198 kts 355°
2026-04-28 16:35 50.41793 18.73094 4017 ft 199 kts 21°
2026-04-28 16:36 50.43066 18.73984 4007 ft 202 kts 25°
2026-04-28 16:36 50.44330 18.74940 4004 ft 202 kts 25°
2026-04-28 16:36 50.45578 18.75883 4003 ft 202 kts 25°
2026-04-28 16:36 50.46826 18.76950 3988 ft 203 kts 40°
2026-04-28 16:37 50.47539 18.78752 3923 ft 201 kts 75°
2026-04-28 16:37 50.47652 18.80966 3767 ft 199 kts 88°
2026-04-28 16:37 50.47646 18.83074 3561 ft 192 kts 88°
2026-04-28 16:38 50.47640 18.87054 3208 ft 175 kts 87°
2026-04-28 16:38 50.47639 18.88938 3074 ft 169 kts 87°
2026-04-28 16:38 50.47634 18.90764 2849 ft 166 kts 87°
2026-04-28 16:38 50.47632 18.92515 2680 ft 159 kts 87°
2026-04-28 16:39 50.47629 18.94239 2467 ft 156 kts 87°
2026-04-28 16:39 50.47631 18.95912 2309 ft 151 kts 85°
2026-04-28 16:39 50.47623 18.97575 2117 ft 155 kts 87°
2026-04-28 16:39 50.47598 18.99286 1940 ft 158 kts 88°
2026-04-28 16:40 50.47597 19.01007 1739 ft 157 kts 86°
2026-04-28 16:40 50.47604 19.02718 1519 ft 157 kts 86°
2026-04-28 16:40 50.47602 19.04421 1301 ft 154 kts 86°
2026-04-28 16:40 50.47604 19.06085 1052 ft 151 kts 86°
2026-04-28 16:41 50.47601 19.07596 1000 ft 114 kts 90°
2026-04-28 16:41 50.47600 19.08504 996 ft 60 kts 89°
2026-04-28 16:41 50.47599 19.09004 1000 ft 40 kts 90°
2026-04-28 16:41 50.47597 19.09211 1001 ft 8 kts 91°
2026-04-28 16:42 50.47596 19.09298 1000 ft 8 kts 92°
2026-04-28 16:42 50.47569 19.09376 999 ft 8 kts 149°
2026-04-28 16:42 50.47513 19.09390 998 ft 8 kts 180°
2026-04-28 16:42 50.47469 19.09390 998 ft 2 kts 179°
2026-04-28 16:43 50.47456 19.09390 998 ft 2 kts 179°
2026-04-28 16:43 50.47441 19.09390 1000 ft 3 kts 179°
2026-04-28 16:43 50.47414 19.09390 1002 ft 5 kts 180°
2026-04-28 16:43 50.47371 19.09390 1000 ft 7 kts 181°
2026-04-28 16:44 50.47314 19.09387 997 ft 9 kts 182°
2026-04-28 16:44 50.47250 19.09383 997 ft 9 kts 195°
2026-04-28 16:44 50.47232 19.09344 1003 ft 5 kts 259°
2026-04-28 16:44 50.47221 19.09290 997 ft 5 kts 216°
2026-04-28 16:45 50.47194 19.09284 997 ft 2 kts 181°
2026-04-28 16:45 50.47178 19.09284 997 ft 2 kts 180°
2026-04-28 16:45 50.47171 19.09284 1002 ft 2 kts 180°
2026-04-28 16:45 50.47156 19.09284 1000 ft 2 kts 179°
2026-04-28 16:46 50.47141 19.09284 997 ft 2 kts 180°
2026-04-28 16:46 50.47138 19.09284 1000 ft 0 kts 180°